Idaho Cnty AP, Grangeville, I, ID

5:37 AM PDT on March 23, 2017 (GMT -0700)
Idaho Cnty AP, Grangeville, I

Weather History for KGIC - April, 2014

Change the Weather History Date:

Tuesday, April 1, 2014

  Actual Average (KP69) Record (KP69)
Temperature  
Mean Temperature 40 °F -  
Max Temperature 51 °F 54 °F 73 °F (2013)
Min Temperature 30 °F 33 °F 28 °F (1999)
Degree Days  
Heating Degree Days 24    
Moisture  
Dew Point 32 °F    
Average Humidity 73    
Maximum Humidity 94    
Minimum Humidity 42    
Precipitation  
Precipitation 0.00 in - - ()
Sea Level Pressure  
Sea Level Pressure 29.72 in    
Wind  
Wind Speed 2 mph (NNE)    
Max Wind Speed 14 mph    
Max Gust Speed -    
Visibility 9 miles    
Events      
Averages and records for this station are not official NWS values.
T = Trace of Precipitation, MM = Missing Value Source: NWS Daily Summary

Daily Weather History Graph

Daily Weather History Graph

Search for Another Location

Airport or City:

Trip Planner

Search our weather history database for the weather conditions in past years. The results will help you decide how hot, cold, wet, or windy it might be!

Date:

Astronomy

Apr. 01, 2014 Rise Set
Actual Time 6:24 AM PDT 7:13 PM PDT
Civil Twilight 5:54 AM PDT 7:43 PM PDT
Nautical Twilight 5:18 AM PDT 8:19 PM PDT
Astronomical Twilight 4:40 AM PDT 8:57 PM PDT
Moon 7:23 AM PDT (4/1) 9:48 PM PDT (4/1)
Length of Visible Light 13h 49m
Length of Day
12h 48m
Waxing Crescent, 5% of the Moon is Illuminated
Apr 1
Waxing Crescent
Apr 7
First Quarter
Apr 15
Full
Apr 22
Last Quarter
Apr 28
New

Hourly Weather History & Observations

Time (PDT) Temp. Windchill Dew Point Humidity Pressure Visibility Wind Dir Wind Speed Gust Speed Precip Events Conditions
12:15 AM 33.4 °F - 31.1 °F 91% 29.76 in 10.0 mi Calm Calm - N/A   Overcast
12:35 AM 33.1 °F - 30.9 °F 92% 29.75 in 10.0 mi Calm Calm - N/A   Overcast
12:55 AM 32.9 °F - 30.9 °F 92% 29.75 in 10.0 mi North - - N/A   Overcast
1:15 AM 32.9 °F - 31.1 °F 93% 29.75 in 7.0 mi North - - N/A   Overcast
1:35 AM 32.7 °F - 30.9 °F 93% 29.74 in 10.0 mi North - - N/A   Mostly Cloudy
1:55 AM 32.7 °F - 30.6 °F 92% 29.74 in 10.0 mi North - - N/A   Mostly Cloudy
2:15 AM 32.0 °F - 30.0 °F 92% 29.74 in 7.0 mi North - - N/A   Overcast
2:35 AM 32.0 °F - 29.5 °F 90% 29.73 in 7.0 mi North - - N/A   Overcast
2:55 AM 31.8 °F - 29.1 °F 90% 29.73 in 7.0 mi Calm Calm - N/A   Mostly Cloudy
3:15 AM 31.8 °F 28.5 °F 29.3 °F 90% 29.73 in 10.0 mi SW 3.5 mph - N/A   Clear
3:35 AM 31.6 °F - 28.8 °F 89% 29.72 in 7.0 mi Calm Calm - N/A   Clear
3:55 AM 30.9 °F 27.5 °F 28.0 °F 89% 29.72 in 7.0 mi SW 3.5 mph - N/A   Scattered Clouds
4:15 AM 30.6 °F - 27.5 °F 88% 29.72 in 10.0 mi Calm Calm - N/A   Mostly Cloudy
4:35 AM 30.6 °F - 27.7 °F 89% 29.71 in 7.0 mi Calm Calm - N/A   Overcast
4:55 AM 30.6 °F - 27.9 °F 90% 29.70 in 7.0 mi Calm Calm - N/A   Overcast
5:15 AM 30.6 °F - 27.3 °F 88% 29.70 in 7.0 mi Calm Calm - N/A   Overcast
5:35 AM 30.0 °F - 27.0 °F 88% 29.70 in 7.0 mi Calm Calm - N/A   Mostly Cloudy
5:55 AM 30.6 °F 27.1 °F 27.5 °F 88% 29.70 in 10.0 mi SSW 3.5 mph - N/A   Scattered Clouds
6:15 AM 30.4 °F 26.9 °F 27.7 °F 90% 29.71 in 10.0 mi West 3.5 mph - N/A   Clear
6:35 AM 30.2 °F 26.7 °F 27.5 °F 90% 29.71 in 10.0 mi SSW 3.5 mph - N/A   Clear
6:55 AM 30.6 °F - 28.0 °F 90% 29.71 in 5.0 mi Calm Calm - N/A   Mostly Cloudy
7:15 AM 31.5 °F - 29.1 °F 91% 29.71 in 7.0 mi Calm Calm - N/A   Mostly Cloudy
7:35 AM 32.0 °F - 30.0 °F 92% 29.72 in 5.0 mi Calm Calm - N/A   Mostly Cloudy
7:55 AM 32.7 °F - 31.1 °F 94% 29.71 in 10.0 mi Calm Calm - N/A   Overcast
8:15 AM 34.0 °F - 32.0 °F 92% 29.71 in 10.0 mi Calm Calm - N/A   Scattered Clouds
8:35 AM 35.4 °F - 32.2 °F 88% 29.71 in 10.0 mi Calm Calm - N/A   Clear
8:55 AM 36.3 °F - 32.0 °F 84% 29.72 in 10.0 mi Calm Calm - N/A   Clear
9:15 AM 37.2 °F - 32.4 °F 83% 29.72 in 10.0 mi Calm Calm - N/A   Clear
9:35 AM 38.3 °F - 32.5 °F 80% 29.72 in 10.0 mi Calm Calm - N/A   Clear
9:55 AM 39.4 °F 36.1 °F 33.4 °F 79% 29.72 in 10.0 mi North 4.6 mph - N/A   Clear
10:15 AM 39.6 °F - 33.6 °F 79% 29.72 in 10.0 mi Calm Calm - N/A   Scattered Clouds
10:35 AM 39.9 °F - 33.3 °F 77% 29.72 in 10.0 mi Calm Calm - N/A   Scattered Clouds
10:55 AM 41.0 °F - 33.6 °F 75% 29.72 in 10.0 mi Calm Calm - N/A   Clear
11:15 AM 41.7 °F - 34.0 °F 74% 29.72 in 10.0 mi Calm Calm - N/A   Clear
11:35 AM 42.6 °F 40.9 °F 34.9 °F 74% 29.72 in 10.0 mi East 3.5 mph - N/A   Clear
11:55 AM 43.3 °F 41.7 °F 35.4 °F 74% 29.71 in 10.0 mi ENE 3.5 mph - N/A   Clear
12:15 PM 44.1 °F - 36.1 °F 74% 29.71 in 10.0 mi Calm Calm - N/A   Clear
12:35 PM 44.4 °F - 35.2 °F 70% 29.71 in 10.0 mi Calm Calm - N/A   Clear
12:55 PM 45.9 °F - 34.9 °F 66% 29.70 in 10.0 mi Calm Calm - N/A   Clear
1:15 PM 46.9 °F - 34.7 °F 62% 29.70 in 10.0 mi North 3.5 mph - N/A   Clear
1:35 PM 48.0 °F - 34.2 °F 59% 29.70 in 10.0 mi North 3.5 mph - N/A   Clear
1:55 PM 48.2 °F - 32.9 °F 55% 29.70 in 10.0 mi North 3.5 mph - N/A   Clear
2:15 PM 48.0 °F - 33.6 °F 57% 29.70 in 10.0 mi ESE 3.5 mph - N/A   Clear
2:35 PM 49.1 °F - 33.4 °F 55% 29.70 in 10.0 mi NNE 3.5 mph - N/A   Clear
2:55 PM 50.9 °F - 33.1 °F 51% 29.69 in 10.0 mi North 5.8 mph - N/A   Clear
3:15 PM 51.1 °F - 33.3 °F 51% 29.68 in 10.0 mi NE 5.8 mph - N/A   Clear
3:35 PM 51.4 °F - 30.4 °F 44% 29.68 in 10.0 mi North 6.9 mph - N/A   Clear
3:55 PM 51.3 °F - 28.8 °F 42% 29.68 in 10.0 mi NNE 8.1 mph - N/A   Clear
4:15 PM 51.3 °F - 29.7 °F 44% 29.68 in 10.0 mi NE 5.8 mph - N/A   Scattered Clouds
4:35 PM 51.3 °F - 28.6 °F 42% 29.68 in 10.0 mi NNE 6.9 mph - N/A   Scattered Clouds
4:55 PM 51.8 °F - 29.3 °F 42% 29.68 in 10.0 mi ENE 6.9 mph - N/A   Clear
5:15 PM 51.4 °F - 32.0 °F 47% 29.69 in 10.0 mi NE 9.2 mph - N/A   Clear
5:35 PM 50.4 °F - 33.1 °F 52% 29.70 in 10.0 mi NE 8.1 mph - N/A   Clear
5:55 PM 49.8 °F - 34.2 °F 55% 29.70 in 10.0 mi NNE 8.1 mph - N/A   Scattered Clouds
6:15 PM 48.6 °F - 34.9 °F 59% 29.70 in 10.0 mi North 13.8 mph - N/A   Overcast
6:35 PM 47.3 °F - 36.5 °F 66% 29.71 in 10.0 mi North 6.9 mph - N/A   Scattered Clouds
6:55 PM 46.2 °F 43.3 °F 36.9 °F 70% 29.71 in 10.0 mi North 5.8 mph - N/A   Clear
7:15 PM 45.3 °F 43.0 °F 36.1 °F 70% 29.71 in 10.0 mi North 4.6 mph - N/A   Scattered Clouds
7:35 PM 44.6 °F 43.1 °F 34.9 °F 69% 29.71 in 10.0 mi North 3.5 mph - N/A   Overcast
7:55 PM 44.6 °F 42.2 °F 33.6 °F 65% 29.72 in 10.0 mi East 4.6 mph - N/A   Mostly Cloudy
8:15 PM 44.1 °F - 33.4 °F 66% 29.73 in 10.0 mi Calm Calm - N/A   Mostly Cloudy
8:35 PM 43.5 °F 40.9 °F 33.3 °F 67% 29.73 in 10.0 mi ESE 4.6 mph - N/A   Mostly Cloudy
8:55 PM 43.0 °F 37.7 °F 32.9 °F 68% 29.73 in 10.0 mi SE 9.2 mph - N/A   Overcast
9:15 PM 43.9 °F 39.3 °F 32.4 °F 64% 29.74 in 10.0 mi SSE 8.1 mph - N/A   Overcast
9:35 PM 43.9 °F - 32.2 °F 63% 29.74 in 10.0 mi Calm Calm - N/A   Mostly Cloudy
9:55 PM 43.9 °F 42.3 °F 32.0 °F 63% 29.74 in 10.0 mi NNW 3.5 mph - N/A   Overcast
10:15 PM 42.8 °F - 32.7 °F 68% 29.75 in 10.0 mi Calm Calm - N/A   Overcast
10:35 PM 42.6 °F - 32.5 °F 68% 29.75 in 10.0 mi Calm Calm - N/A   Overcast
10:55 PM 43.0 °F 39.5 °F 32.0 °F 65% 29.75 in 10.0 mi SW 5.8 mph - N/A   Overcast
11:15 PM 43.2 °F - 32.0 °F 65% 29.75 in 10.0 mi Calm Calm - N/A   Overcast
11:35 PM 42.4 °F 38.1 °F 32.0 °F 67% 29.75 in 10.0 mi SW 6.9 mph - N/A   Overcast
11:55 PM 41.9 °F 37.5 °F 32.5 °F 69% 29.75 in 10.0 mi SSE 6.9 mph - N/A   Overcast